Home   Weather   Taiohae   Past weeks

Flag for French Polynesia Past Weather in Taiohae, Marquesas Islands, French Polynesia — Yesterday and Last 2 Weeks

Now
81 °F

Warm.


Feels Like: 86 °F
Forecast: 80 / 87 °F
Wind: 2 mph from Southeast

Location: Atuona

Current Time: Apr 24, 2017 at 9:43:28 pm

Latest Report: Apr 24, 2017 at 8:30 pm


Visibility: N/A

Pressure: 29.90 "Hg

Humidity: 82%

Dew Point: 75 °F

Location of TaiohaeLocation

Past Weather in Taiohae — Graph

°F

Taiohae Temperature Yesterday

Maximum temperature yesterday: 86 °F (at 9:30 am)
Minimum temperature yesterday: 77 °F (at 12:30 am)
Average temperature yesterday: 81 °F

High & Low Weather Summary for the Past Weeks

 TemperatureHumidityPressure
High92 °F (Apr 16, 1:30 pm)97% (Apr 21, 5:30 am)29.91 "Hg (Apr 21, 5:30 am)
Low75 °F (Apr 22, 1:30 am)53% (Apr 16, 11:30 am)29.70 "Hg (Apr 14, 2:30 pm)
Average81 °F85%29.81 "Hg
* Reported Apr 9 8:30 pm — Apr 24 8:30 pm, Taiohae, Weather by CustomWeather, © 2017

Note: Actual official high and low records may vary slightly from our data, if they occured in-between our weather recording intervals... More about our weather records

Advertising

Taiohae Weather History for the Previous 24 Hours

Scroll right to see more
 ConditionsComfort  
Time TempWeatherWind HumidityBarometerVisibility
8:30 pm
Mon, Apr 24
81 °FWarm.2 mph82%29.90 "HgN/A
7:30 pm79 °FWarm.2 mph89%29.88 "HgN/A
5:30 pm80 °FWarm.5 mph87%29.83 "HgN/A
4:30 pm83 °FWarm.5 mph79%29.81 "HgN/A
3:30 pm84 °FWarm.2 mph76%29.80 "HgN/A
2:30 pm84 °FWarm.6 mph79%29.80 "HgN/A
1:30 pm84 °FWarm.10 mph74%29.82 "HgN/A
11:30 am84 °FWarm.6 mph87%29.86 "HgN/A
10:30 am85 °FOvercast.5 mph76%29.89 "Hg3 mi
9:30 am82 °FWarm.3 mph86%29.90 "HgN/A
8:30 am82 °FOvercast.3 mph82%29.89 "Hg5 mi
7:30 am78 °FOvercast.12 mph90%29.88 "Hg3 mi
6:30 am78 °FWarm.2 mph93%29.85 "HgN/A
5:30 am77 °FWarm.3 mph95%29.83 "HgN/A
4:30 am77 °FWarm.5 mph94%29.81 "HgN/A
3:30 am77 °FWarm.2 mph94%29.80 "HgN/A
2:30 am77 °FWarm.6 mph95%29.80 "HgN/A
1:30 am77 °FMild.3 mph92%29.83 "HgN/A
12:30 am78 °FWarm.2 mph92%29.84 "HgN/A
11:30 pm
Sun, Apr 23
78 °FWarm.1 mph92%29.86 "HgN/A
10:30 pm79 °FWarm.3 mph90%29.87 "HgN/A
9:30 pm80 °FWarm.5 mph87%29.87 "HgN/A
Weather by CustomWeather, © 2017

See weather overviewHow to use our weather pages